This is the latest recevied weather packets stored in our database for station/object PY2KO-3. If no packets are shown the sender has not sent any weather packets the latest 10 day(s).
| Time | Temp. | Humidity | Pressure | Rain* | Wind** | Luminosity | Snow |
|---|---|---|---|---|---|---|---|
| 1777954750 | 17.78° C | 90% | 1024.3 hPa | - | - | - | - |
| 1777953850 | 17.78° C | 90% | 1024.3 hPa | - | - | - | - |
| 1777952950 | 17.78° C | 92% | 1024.4 hPa | - | - | - | - |
| 1777952050 | 18.33° C | 90% | 1024.3 hPa | - | - | - | - |
| 1777951150 | 18.33° C | 90% | 1024.4 hPa | - | - | - | - |
| 1777950250 | 18.33° C | 89% | 1024.4 hPa | - | - | - | - |
| 1777949350 | 18.33° C | 90% | 1024.4 hPa | - | - | - | - |
| 1777948450 | 18.33° C | 89% | 1024.2 hPa | - | - | - | - |
| 1777947550 | 18.89° C | 90% | 1024.1 hPa | - | - | - | - |
| 1777946651 | 18.33° C | 92% | 1024.3 hPa | - | - | - | - |
| 1777945750 | 18.89° C | 92% | 1024.2 hPa | - | - | - | - |
| 1777944850 | 18.89° C | 91% | 1024 hPa | - | - | - | - |
| 1777943950 | 18.89° C | 91% | 1024.1 hPa | - | - | - | - |
| 1777943050 | 18.89° C | 91% | 1024.1 hPa | - | - | - | - |
| 1777942150 | 18.89° C | 92% | 1023.8 hPa | - | - | - | - |
| 1777941250 | 18.89° C | 92% | 1023.8 hPa | - | - | - | - |
| 1777940350 | 18.89° C | 92% | 1023.8 hPa | - | - | - | - |
| 1777939450 | 19.44° C | 90% | 1023.9 hPa | - | - | - | - |
| 1777938550 | 18.89° C | 91% | 1023.9 hPa | - | - | - | - |
| 1777937650 | 18.89° C | 91% | 1023.9 hPa | - | - | - | - |
| 1777936750 | 19.44° C | 89% | 1023.5 hPa | - | - | - | - |
| 1777935850 | 19.44° C | 90% | 1023.2 hPa | - | - | - | - |
| 1777934950 | 19.44° C | 87% | 1022.9 hPa | - | - | - | - |
| 1777934050 | 20° C | 85% | 1022.4 hPa | - | - | - | - |
| 1777933157 | 20° C | 85% | 1022.3 hPa | - | - | - | - |
* Rain since midnight (hover to see other rain measurements)
** Current wind speed in m/s (hover to see current wind gust speed)